Time,TemperatureF,DewpointF,PressureIn,WindDirection,WindDirectionDegrees,WindSpeedMPH,WindSpeedGustMPH,Humidity,HourlyPrecipIn,Conditions,Clouds,dailyrainin,SoftwareType,DateUTC
2013-01-06 00:00:00,23.0,8.4,29.80,North,0,0.0,0.0,53,0.00,,---,0.00,VWS V14.00,2013-01-06 05:00:00,
2013-01-06 00:01:00,23.0,8.4,29.80,North,0,0.0,0.0,53,0.00,,---,0.00,VWS V14.00,2013-01-06 05:01:00,
2013-01-06 00:04:00,23.0,8.9,29.80,North,0,0.0,0.0,54,0.00,,---,0.00,VWS V14.00,2013-01-06 05:04:00,
2013-01-06 00:05:00,23.0,8.9,29.80,North,0,0.0,0.0,54,0.00,,---,0.00,VWS V14.00,2013-01-06 05:05:00,
2013-01-06 00:09:00,23.0,8.9,29.80,North,0,0.0,0.0,54,0.00,,---,0.00,VWS V14.00,2013-01-06 05:09:00,
2013-01-06 00:15:00,23.0,8.9,29.77,North,0,0.0,0.0,54,0.00,,---,0.00,VWS V14.00,2013-01-06 05:15:00,
2013-01-06 00:20:00,22.8,8.7,29.77,North,0,0.0,0.0,54,0.00,,---,0.00,VWS V14.00,2013-01-06 05:20:00,
2013-01-06 00:25:00,22.8,8.7,29.77,North,0,0.0,0.0,54,0.00,,---,0.00,VWS V14.00,2013-01-06 05:25:00,
2013-01-06 00:31:00,23.0,9.2,29.77,North,0,0.0,0.0,55,0.00,,---,0.00,VWS V14.00,2013-01-06 05:31:00,
2013-01-06 00:37:00,23.0,9.2,29.77,North,0,0.0,0.0,55,0.00,,---,0.00,VWS V14.00,2013-01-06 05:37:00,
2013-01-06 00:42:00,23.0,9.2,29.77,North,0,0.0,0.0,55,0.00,,---,0.00,VWS V14.00,2013-01-06 05:42:00,
2013-01-06 00:47:00,23.2,9.4,29.77,North,0,0.0,0.0,55,0.00,,---,0.00,VWS V14.00,2013-01-06 05:47:00,
2013-01-06 00:53:00,23.2,9.4,29.77,North,0,0.0,0.0,55,0.00,,---,0.00,VWS V14.00,2013-01-06 05:53:00,
2013-01-06 00:58:00,23.4,9.2,29.77,North,0,0.0,0.0,54,0.00,,---,0.00,VWS V14.00,2013-01-06 05:58:00,
2013-01-06 01:03:00,23.5,9.4,29.77,North,0,0.0,0.0,54,0.00,,---,0.00,VWS V14.00,2013-01-06 06:03:00,
2013-01-06 01:08:00,23.5,9.4,29.77,North,0,0.0,0.0,54,0.00,,---,0.00,VWS V14.00,2013-01-06 06:08:00,
2013-01-06 01:13:00,23.5,9.4,29.77,North,0,0.0,0.0,54,0.00,,---,0.00,VWS V14.00,2013-01-06 06:13:00,
2013-01-06 01:19:00,23.7,9.5,29.77,North,0,0.0,0.0,54,0.00,,---,0.00,VWS V14.00,2013-01-06 06:19:00,
2013-01-06 01:24:00,23.7,9.5,29.77,North,0,0.0,0.0,54,0.00,,---,0.00,VWS V14.00,2013-01-06 06:24:00,
2013-01-06 01:29:00,23.9,9.7,29.77,North,0,0.0,0.0,54,0.00,,---,0.00,VWS V14.00,2013-01-06 06:29:00,
2013-01-06 01:34:00,23.9,9.7,29.80,North,0,0.0,0.0,54,0.00,,---,0.00,VWS V14.00,2013-01-06 06:34:00,
2013-01-06 01:40:00,23.9,9.7,29.80,North,0,0.0,0.0,54,0.00,,---,0.00,VWS V14.00,2013-01-06 06:40:00,
2013-01-06 01:45:00,24.1,9.9,29.80,North,0,0.0,0.0,54,0.00,,---,0.00,VWS V14.00,2013-01-06 06:45:00,
2013-01-06 01:50:00,24.3,10.4,29.80,North,0,0.0,0.0,55,0.00,,---,0.00,VWS V14.00,2013-01-06 06:50:00,
2013-01-06 01:55:00,24.3,10.0,29.80,North,0,0.0,0.0,54,0.00,,---,0.00,VWS V14.00,2013-01-06 06:55:00,
2013-01-06 02:00:00,24.3,10.0,29.80,North,0,0.0,0.0,54,0.00,,---,0.00,VWS V14.00,2013-01-06 07:00:00,
2013-01-06 02:06:00,24.3,10.0,29.80,North,0,0.0,0.0,54,0.00,,---,0.00,VWS V14.00,2013-01-06 07:06:00,
2013-01-06 02:12:00,24.4,10.2,29.80,North,0,0.0,0.0,54,0.00,,---,0.00,VWS V14.00,2013-01-06 07:12:00,
2013-01-06 02:17:00,24.4,10.6,29.80,North,0,0.0,0.0,55,0.00,,---,0.00,VWS V14.00,2013-01-06 07:17:00,
2013-01-06 02:22:00,24.6,10.8,29.80,North,0,0.0,0.0,55,0.00,,---,0.00,VWS V14.00,2013-01-06 07:22:00,
2013-01-06 02:28:00,24.4,10.2,29.80,North,0,0.0,0.0,54,0.00,,---,0.00,VWS V14.00,2013-01-06 07:28:00,
2013-01-06 02:33:00,24.4,10.2,29.80,North,0,0.0,0.0,54,0.00,,---,0.00,VWS V14.00,2013-01-06 07:33:00,
2013-01-06 02:38:00,24.6,10.4,29.80,North,0,0.0,0.0,54,0.00,,---,0.00,VWS V14.00,2013-01-06 07:38:00,
2013-01-06 02:43:00,24.6,10.4,29.80,North,0,0.0,0.0,54,0.00,,---,0.00,VWS V14.00,2013-01-06 07:43:00,
2013-01-06 02:48:00,24.8,10.5,29.80,North,0,0.0,0.0,54,0.00,,---,0.00,VWS V14.00,2013-01-06 07:48:00,
2013-01-06 02:54:00,25.0,10.7,29.80,North,0,0.0,0.0,54,0.00,,---,0.00,VWS V14.00,2013-01-06 07:54:00,
2013-01-06 02:59:00,25.0,10.7,29.80,North,0,0.0,0.0,54,0.00,,---,0.00,VWS V14.00,2013-01-06 07:59:00,
2013-01-06 03:04:00,25.0,10.7,29.77,North,0,0.0,0.0,54,0.00,,---,0.00,VWS V14.00,2013-01-06 08:04:00,
2013-01-06 03:09:00,25.2,10.9,29.77,North,0,0.0,0.0,54,0.00,,---,0.00,VWS V14.00,2013-01-06 08:09:00,
2013-01-06 03:14:00,25.2,10.9,29.77,North,0,0.0,0.0,54,0.00,,---,0.00,VWS V14.00,2013-01-06 08:14:00,
2013-01-06 03:20:00,25.2,10.9,29.77,North,0,0.0,0.0,54,0.00,,---,0.00,VWS V14.00,2013-01-06 08:20:00,
2013-01-06 03:25:00,25.3,11.0,29.77,North,0,0.0,0.0,54,0.00,,---,0.00,VWS V14.00,2013-01-06 08:25:00,
2013-01-06 03:30:00,25.3,11.0,29.74,North,0,0.0,0.0,54,0.00,,---,0.00,VWS V14.00,2013-01-06 08:30:00,
2013-01-06 03:36:00,25.3,11.0,29.74,North,0,0.0,0.0,54,0.00,,---,0.00,VWS V14.00,2013-01-06 08:36:00,
2013-01-06 03:42:00,25.3,11.0,29.74,North,0,0.0,0.0,54,0.00,,---,0.00,VWS V14.00,2013-01-06 08:42:00,
2013-01-06 03:47:00,25.3,11.0,29.74,North,0,0.0,0.0,54,0.00,,---,0.00,VWS V14.00,2013-01-06 08:47:00,
2013-01-06 03:52:00,25.5,11.2,29.74,North,0,0.0,0.0,54,0.00,,---,0.00,VWS V14.00,2013-01-06 08:52:00,
2013-01-06 03:57:00,25.5,11.2,29.74,North,0,0.0,0.0,54,0.00,,---,0.00,VWS V14.00,2013-01-06 08:57:00,
2013-01-06 04:03:00,25.5,11.2,29.74,North,0,0.0,0.0,54,0.00,,---,0.00,VWS V14.00,2013-01-06 09:03:00,
2013-01-06 04:08:00,25.5,11.2,29.74,North,0,0.0,0.0,54,0.00,,---,0.00,VWS V14.00,2013-01-06 09:08:00,
2013-01-06 04:13:00,25.7,11.4,29.74,North,0,0.0,0.0,54,0.00,,---,0.00,VWS V14.00,2013-01-06 09:13:00,
2013-01-06 04:18:00,25.7,11.8,29.74,North,0,0.0,0.0,55,0.00,,---,0.00,VWS V14.00,2013-01-06 09:18:00,
2013-01-06 04:24:00,25.9,11.9,29.74,North,0,0.0,0.0,55,0.00,,---,0.00,VWS V14.00,2013-01-06 09:24:00,
2013-01-06 04:29:00,26.1,11.7,29.74,North,0,0.0,0.0,54,0.00,,---,0.00,VWS V14.00,2013-01-06 09:29:00,
2013-01-06 04:34:00,26.2,11.9,29.71,North,0,0.0,0.0,54,0.00,,---,0.00,VWS V14.00,2013-01-06 09:34:00,
2013-01-06 04:39:00,26.4,11.6,29.71,North,0,0.0,0.0,53,0.00,,---,0.00,VWS V14.00,2013-01-06 09:39:00,
2013-01-06 04:44:00,26.4,11.6,29.71,North,0,0.0,0.0,53,0.00,,---,0.00,VWS V14.00,2013-01-06 09:44:00,
2013-01-06 04:50:00,26.6,11.8,29.71,North,0,0.0,0.0,53,0.00,,---,0.00,VWS V14.00,2013-01-06 09:50:00,
2013-01-06 04:55:00,26.6,11.8,29.71,North,0,0.0,0.0,53,0.00,,---,0.00,VWS V14.00,2013-01-06 09:55:00,
2013-01-06 05:00:00,26.8,12.0,29.71,North,0,0.0,0.0,53,0.00,,---,0.00,VWS V14.00,2013-01-06 10:00:00,
2013-01-06 05:05:00,27.0,12.1,29.71,North,0,0.0,0.0,53,0.00,,---,0.00,VWS V14.00,2013-01-06 10:05:00,
2013-01-06 05:11:00,27.0,12.1,29.71,North,0,0.0,0.0,53,0.00,,---,0.00,VWS V14.00,2013-01-06 10:11:00,
2013-01-06 05:17:00,27.0,12.6,29.68,North,0,0.0,0.0,54,0.00,,---,0.00,VWS V14.00,2013-01-06 10:17:00,
2013-01-06 05:22:00,27.0,12.6,29.68,North,0,0.0,0.0,54,0.00,,---,0.00,VWS V14.00,2013-01-06 10:22:00,
2013-01-06 05:27:00,27.0,12.6,29.68,North,0,0.0,0.0,54,0.00,,---,0.00,VWS V14.00,2013-01-06 10:27:00,
2013-01-06 05:32:00,27.0,12.6,29.68,North,0,0.0,0.0,54,0.00,,---,0.00,VWS V14.00,2013-01-06 10:32:00,
2013-01-06 05:38:00,27.0,13.0,29.68,North,0,0.0,0.0,55,0.00,,---,0.00,VWS V14.00,2013-01-06 10:38:00,
2013-01-06 05:43:00,27.0,13.0,29.68,North,0,0.0,0.0,55,0.00,,---,0.00,VWS V14.00,2013-01-06 10:43:00,
2013-01-06 05:48:00,26.8,12.8,29.68,North,0,0.0,0.0,55,0.00,,---,0.00,VWS V14.00,2013-01-06 10:48:00,
2013-01-06 05:53:00,26.8,13.2,29.68,North,0,0.0,0.0,56,0.00,,---,0.00,VWS V14.00,2013-01-06 10:53:00,
2013-01-06 05:59:00,26.8,13.2,29.68,North,0,0.0,0.0,56,0.00,,---,0.00,VWS V14.00,2013-01-06 10:59:00,
2013-01-06 06:04:00,26.8,13.2,29.68,North,0,0.0,0.0,56,0.00,,---,0.00,VWS V14.00,2013-01-06 11:04:00,
2013-01-06 06:09:00,26.8,13.2,29.68,North,0,0.0,0.0,56,0.00,,---,0.00,VWS V14.00,2013-01-06 11:09:00,
2013-01-06 06:14:00,27.0,13.8,29.68,North,0,0.0,0.0,57,0.00,,---,0.00,VWS V14.00,2013-01-06 11:14:00,
2013-01-06 06:20:00,27.0,13.8,29.68,North,0,0.0,0.0,57,0.00,,---,0.00,VWS V14.00,2013-01-06 11:20:00,
2013-01-06 06:26:00,27.0,13.8,29.68,North,0,0.0,0.0,57,0.00,,---,0.00,VWS V14.00,2013-01-06 11:26:00,
2013-01-06 06:31:00,27.0,13.8,29.68,North,0,0.0,0.0,57,0.00,,---,0.00,VWS V14.00,2013-01-06 11:31:00,
2013-01-06 06:36:00,27.1,14.3,29.68,North,0,0.0,0.0,58,0.00,,---,0.00,VWS V14.00,2013-01-06 11:36:00,
2013-01-06 06:41:00,27.1,14.3,29.68,North,0,0.0,0.0,58,0.00,,---,0.00,VWS V14.00,2013-01-06 11:41:00,
2013-01-06 06:46:00,27.1,14.7,29.68,North,0,0.0,0.0,59,0.00,,---,0.00,VWS V14.00,2013-01-06 11:46:00,
2013-01-06 06:52:00,27.1,14.7,29.68,North,0,0.0,0.0,59,0.00,,---,0.00,VWS V14.00,2013-01-06 11:52:00,
2013-01-06 06:57:00,27.3,14.9,29.68,North,0,0.0,0.0,59,0.00,,---,0.00,VWS V14.00,2013-01-06 11:57:00,
2013-01-06 07:02:00,27.3,14.9,29.68,North,0,0.0,0.0,59,0.00,,---,0.00,VWS V14.00,2013-01-06 12:02:00,
2013-01-06 07:07:00,27.3,15.3,29.68,North,0,0.0,0.0,60,0.00,,---,0.00,VWS V14.00,2013-01-06 12:07:00,
2013-01-06 07:13:00,27.3,15.3,29.68,North,0,0.0,0.0,60,0.00,,---,0.00,VWS V14.00,2013-01-06 12:13:00,
2013-01-06 07:18:00,27.3,15.3,29.65,North,0,0.0,0.0,60,0.00,,---,0.00,VWS V14.00,2013-01-06 12:18:00,
2013-01-06 07:23:00,27.3,15.7,29.65,North,0,0.0,0.0,61,0.00,,---,0.00,VWS V14.00,2013-01-06 12:23:00,
2013-01-06 07:28:00,27.3,15.7,29.65,North,0,0.0,0.0,61,0.00,,---,0.00,VWS V14.00,2013-01-06 12:28:00,
2013-01-06 07:34:00,27.5,15.8,29.65,North,0,0.0,0.0,61,0.00,,---,0.00,VWS V14.00,2013-01-06 12:34:00,
2013-01-06 07:39:00,27.5,15.8,29.65,North,0,0.0,0.0,61,0.00,,---,0.00,VWS V14.00,2013-01-06 12:39:00,
2013-01-06 07:44:00,27.5,15.8,29.65,North,0,0.0,0.0,61,0.00,,---,0.00,VWS V14.00,2013-01-06 12:44:00,
2013-01-06 07:49:00,27.5,16.2,29.65,North,0,0.0,0.0,62,0.00,,---,0.00,VWS V14.00,2013-01-06 12:49:00,
2013-01-06 07:55:00,27.3,16.0,29.65,North,0,0.0,0.0,62,0.00,,---,0.00,VWS V14.00,2013-01-06 12:55:00,
2013-01-06 08:00:00,27.3,16.4,29.65,North,0,0.0,0.0,63,0.00,,---,0.00,VWS V14.00,2013-01-06 13:00:00,
2013-01-06 08:06:00,27.1,16.2,29.65,North,0,0.0,0.0,63,0.00,,---,0.00,VWS V14.00,2013-01-06 13:06:00,
2013-01-06 08:11:00,27.3,16.4,29.65,North,0,0.0,0.0,63,0.00,,---,0.00,VWS V14.00,2013-01-06 13:11:00,
2013-01-06 08:16:00,28.2,17.6,29.65,North,0,0.0,0.0,64,0.00,,---,0.00,VWS V14.00,2013-01-06 13:16:00,
2013-01-06 08:22:00,30.2,19.5,29.65,North,0,0.0,0.0,64,0.00,,---,0.00,VWS V14.00,2013-01-06 13:22:00,
2013-01-06 08:27:00,32.2,21.0,29.65,North,0,0.0,0.0,63,0.00,,---,0.00,VWS V14.00,2013-01-06 13:27:00,
2013-01-06 08:32:00,33.1,20.3,29.65,North,0,0.0,0.0,59,0.00,,---,0.00,VWS V14.00,2013-01-06 13:32:00,
2013-01-06 08:37:00,34.0,20.8,29.65,North,0,0.0,0.0,58,0.00,,---,0.00,VWS V14.00,2013-01-06 13:37:00,
2013-01-06 08:42:00,35.1,21.0,29.65,North,0,0.0,0.0,56,0.00,,---,0.00,VWS V14.00,2013-01-06 13:42:00,
2013-01-06 08:48:00,34.5,18.3,29.65,North,0,0.0,0.0,51,0.00,,---,0.00,VWS V14.00,2013-01-06 13:48:00,
2013-01-06 08:53:00,35.4,18.6,29.65,North,0,0.0,0.0,50,0.00,,---,0.00,VWS V14.00,2013-01-06 13:53:00,
2013-01-06 08:58:00,34.5,16.9,29.65,North,0,0.0,0.0,48,0.00,,---,0.00,VWS V14.00,2013-01-06 13:58:00,
2013-01-06 09:03:00,35.4,18.2,29.65,North,0,0.0,0.0,49,0.00,,---,0.00,VWS V14.00,2013-01-06 14:03:00,
2013-01-06 09:09:00,37.2,18.4,29.65,North,0,0.0,0.0,46,0.00,,---,0.00,VWS V14.00,2013-01-06 14:09:00,
2013-01-06 09:14:00,38.1,17.6,29.65,North,0,0.0,0.0,43,0.00,,---,0.00,VWS V14.00,2013-01-06 14:14:00,
2013-01-06 09:19:00,39.4,18.8,29.65,North,0,0.0,0.0,43,0.00,,---,0.00,VWS V14.00,2013-01-06 14:19:00,
2013-01-06 09:24:00,39.2,17.5,29.65,North,0,0.0,0.0,41,0.00,,---,0.00,VWS V14.00,2013-01-06 14:24:00,
2013-01-06 09:30:00,38.8,17.7,29.65,North,0,0.0,0.0,42,0.00,,---,0.00,VWS V14.00,2013-01-06 14:30:00,
2013-01-06 09:36:00,41.0,18.5,29.65,North,0,0.0,0.0,40,0.00,,---,0.00,VWS V14.00,2013-01-06 14:36:00,
2013-01-06 09:41:00,41.9,18.8,29.65,North,0,0.0,0.0,39,0.00,,---,0.00,VWS V14.00,2013-01-06 14:41:00,
2013-01-06 09:46:00,43.2,19.3,29.65,North,0,0.0,0.0,38,0.00,,---,0.00,VWS V14.00,2013-01-06 14:46:00,
2013-01-06 09:51:00,44.4,20.4,29.65,North,0,0.0,0.0,38,0.00,,---,0.00,VWS V14.00,2013-01-06 14:51:00,
2013-01-06 09:57:00,40.8,17.8,29.65,North,0,0.0,0.0,39,0.00,,---,0.00,VWS V14.00,2013-01-06 14:57:00,
2013-01-06 10:02:00,39.7,16.8,29.62,North,0,0.0,0.0,39,0.00,,---,0.00,VWS V14.00,2013-01-06 15:02:00,
2013-01-06 10:07:00,39.4,16.5,29.62,North,0,0.0,0.0,39,0.00,,---,0.00,VWS V14.00,2013-01-06 15:07:00,
2013-01-06 10:12:00,39.6,16.7,29.62,North,0,0.0,0.0,39,0.00,,---,0.00,VWS V14.00,2013-01-06 15:12:00,
2013-01-06 10:18:00,40.3,17.3,29.62,North,0,0.0,0.0,39,0.00,,---,0.00,VWS V14.00,2013-01-06 15:18:00,
2013-01-06 10:23:00,40.3,17.3,29.62,North,0,0.0,0.0,39,0.00,,---,0.00,VWS V14.00,2013-01-06 15:23:00,
2013-01-06 10:28:00,39.9,17.0,29.62,North,0,0.0,0.0,39,0.00,,---,0.00,VWS V14.00,2013-01-06 15:28:00,
2013-01-06 10:33:00,38.8,16.0,29.62,North,0,0.0,0.0,39,0.00,,---,0.00,VWS V14.00,2013-01-06 15:33:00,
2013-01-06 10:39:00,39.0,16.8,29.62,North,0,0.0,0.0,40,0.00,,---,0.00,VWS V14.00,2013-01-06 15:39:00,
2013-01-06 10:45:00,39.2,16.3,29.62,North,0,0.0,0.0,39,0.00,,---,0.00,VWS V14.00,2013-01-06 15:45:00,
2013-01-06 10:50:00,39.2,16.3,29.62,North,0,0.0,0.0,39,0.00,,---,0.00,VWS V14.00,2013-01-06 15:50:00,
2013-01-06 10:55:00,39.2,16.3,29.62,North,0,0.0,0.0,39,0.00,,---,0.00,VWS V14.00,2013-01-06 15:55:00,
2013-01-06 11:00:00,39.6,16.7,29.62,North,0,0.0,0.0,39,0.00,,---,0.00,VWS V14.00,2013-01-06 16:00:00,
2013-01-06 11:06:00,39.6,16.7,29.59,North,0,0.0,0.0,39,0.00,,---,0.00,VWS V14.00,2013-01-06 16:06:00,
2013-01-06 11:11:00,39.7,16.8,29.59,North,0,0.0,0.0,39,0.00,,---,0.00,VWS V14.00,2013-01-06 16:11:00,
2013-01-06 11:16:00,40.1,17.1,29.59,North,0,0.0,0.0,39,0.00,,---,0.00,VWS V14.00,2013-01-06 16:16:00,
2013-01-06 11:21:00,40.1,17.1,29.59,North,0,0.0,0.0,39,0.00,,---,0.00,VWS V14.00,2013-01-06 16:21:00,
2013-01-06 11:27:00,40.5,17.5,29.59,North,0,0.0,0.0,39,0.00,,---,0.00,VWS V14.00,2013-01-06 16:27:00,
2013-01-06 11:32:00,40.8,17.8,29.59,North,0,0.0,0.0,39,0.00,,---,0.00,VWS V14.00,2013-01-06 16:32:00,
2013-01-06 11:37:00,41.2,17.5,29.59,North,0,0.0,0.0,38,0.00,,---,0.00,VWS V14.00,2013-01-06 16:37:00,
2013-01-06 11:42:00,40.8,17.2,29.59,North,0,0.0,0.0,38,0.00,,---,0.00,VWS V14.00,2013-01-06 16:42:00,
2013-01-06 11:48:00,40.6,17.6,29.56,North,0,0.0,0.0,39,0.00,,---,0.00,VWS V14.00,2013-01-06 16:48:00,
2013-01-06 11:53:00,40.6,17.0,29.56,North,0,0.0,0.0,38,0.00,,---,0.00,VWS V14.00,2013-01-06 16:53:00,
2013-01-06 11:58:00,41.2,17.5,29.56,North,0,0.0,0.0,38,0.00,,---,0.00,VWS V14.00,2013-01-06 16:58:00,
2013-01-06 12:03:00,41.7,18.0,29.56,North,0,0.0,0.0,38,0.00,,---,0.00,VWS V14.00,2013-01-06 17:03:00,
2013-01-06 12:08:00,41.7,18.0,29.56,North,0,0.0,0.0,38,0.00,,---,0.00,VWS V14.00,2013-01-06 17:08:00,
2013-01-06 12:14:00,41.7,18.0,29.56,North,0,0.0,0.0,38,0.00,,---,0.00,VWS V14.00,2013-01-06 17:14:00,
2013-01-06 12:20:00,41.9,16.9,29.56,North,0,0.0,0.0,36,0.00,,---,0.00,VWS V14.00,2013-01-06 17:20:00,
2013-01-06 12:25:00,42.3,17.9,29.56,North,0,0.0,0.0,37,0.00,,---,0.00,VWS V14.00,2013-01-06 17:25:00,
2013-01-06 12:30:00,42.4,18.0,29.56,North,0,0.0,0.0,37,0.00,,---,0.00,VWS V14.00,2013-01-06 17:30:00,
2013-01-06 12:35:00,42.4,18.0,29.56,North,0,0.0,0.0,37,0.00,,---,0.00,VWS V14.00,2013-01-06 17:35:00,
2013-01-06 12:41:00,42.6,17.5,29.56,North,0,0.0,0.0,36,0.00,,---,0.00,VWS V14.00,2013-01-06 17:41:00,
2013-01-06 12:46:00,42.8,17.7,29.53,North,0,0.0,0.0,36,0.00,,---,0.00,VWS V14.00,2013-01-06 17:46:00,
2013-01-06 12:51:00,43.0,17.2,29.53,North,0,0.0,0.0,35,0.00,,---,0.00,VWS V14.00,2013-01-06 17:51:00,
2013-01-06 12:56:00,43.3,17.5,29.53,North,0,0.0,0.0,35,0.00,,---,0.00,VWS V14.00,2013-01-06 17:56:00,
2013-01-06 13:02:00,43.5,17.0,29.53,North,0,0.0,0.0,34,0.00,,---,0.00,VWS V14.00,2013-01-06 18:02:00,
2013-01-06 13:07:00,44.1,17.5,29.53,North,0,0.0,0.0,34,0.00,,---,0.00,VWS V14.00,2013-01-06 18:07:00,
2013-01-06 13:12:00,44.2,18.3,29.53,North,0,0.0,0.0,35,0.00,,---,0.00,VWS V14.00,2013-01-06 18:12:00,
2013-01-06 13:17:00,44.4,17.8,29.53,North,0,0.0,0.0,34,0.00,,---,0.00,VWS V14.00,2013-01-06 18:17:00,
2013-01-06 13:23:00,44.1,17.5,29.53,North,0,0.0,0.0,34,0.00,,---,0.00,VWS V14.00,2013-01-06 18:23:00,
2013-01-06 13:28:00,43.9,17.4,29.53,North,0,0.0,0.0,34,0.00,,---,0.00,VWS V14.00,2013-01-06 18:28:00,
2013-01-06 13:33:00,43.7,16.5,29.53,North,0,0.0,0.0,33,0.00,,---,0.00,VWS V14.00,2013-01-06 18:33:00,
2013-01-06 13:38:00,43.7,17.2,29.53,North,0,0.0,0.0,34,0.00,,---,0.00,VWS V14.00,2013-01-06 18:38:00,
2013-01-06 13:43:00,43.5,16.3,29.53,North,0,0.0,0.0,33,0.00,,---,0.00,VWS V14.00,2013-01-06 18:43:00,
2013-01-06 13:49:00,43.3,16.2,29.53,North,0,0.0,0.0,33,0.00,,---,0.00,VWS V14.00,2013-01-06 18:49:00,
2013-01-06 13:55:00,43.0,15.9,29.53,North,0,0.0,0.0,33,0.00,,---,0.00,VWS V14.00,2013-01-06 18:55:00,
2013-01-06 14:00:00,43.2,16.7,29.53,North,0,0.0,0.0,34,0.00,,---,0.00,VWS V14.00,2013-01-06 19:00:00,
2013-01-06 14:05:00,43.3,16.9,29.53,North,0,0.0,0.0,34,0.00,,---,0.00,VWS V14.00,2013-01-06 19:05:00,
2013-01-06 14:11:00,43.5,17.0,29.53,North,0,0.0,0.0,34,0.00,,---,0.00,VWS V14.00,2013-01-06 19:11:00,
2013-01-06 14:16:00,43.3,16.9,29.53,North,0,0.0,0.0,34,0.00,,---,0.00,VWS V14.00,2013-01-06 19:16:00,
2013-01-06 14:21:00,43.3,16.9,29.53,North,0,0.0,0.0,34,0.00,,---,0.00,VWS V14.00,2013-01-06 19:21:00,
2013-01-06 14:26:00,43.5,17.0,29.53,North,0,0.0,0.0,34,0.00,,---,0.00,VWS V14.00,2013-01-06 19:26:00,
2013-01-06 14:32:00,43.3,16.9,29.53,North,0,0.0,0.0,34,0.00,,---,0.00,VWS V14.00,2013-01-06 19:32:00,
2013-01-06 14:37:00,43.2,16.7,29.53,North,0,0.0,0.0,34,0.00,,---,0.00,VWS V14.00,2013-01-06 19:37:00,
2013-01-06 14:47:00,43.0,16.5,29.53,North,0,0.0,0.0,34,0.00,,---,0.00,VWS V14.00,2013-01-06 19:47:00,
2013-01-06 14:54:00,42.3,15.9,29.53,North,0,0.0,0.0,34,0.00,,---,0.00,VWS V14.00,2013-01-06 19:54:00,
2013-01-06 15:01:00,41.7,16.1,29.53,North,0,0.0,0.0,35,0.00,,---,0.00,VWS V14.00,2013-01-06 20:01:00,
2013-01-06 15:06:00,41.4,15.8,29.53,North,0,0.0,0.0,35,0.00,,---,0.00,VWS V14.00,2013-01-06 20:06:00,
2013-01-06 15:11:00,40.6,15.8,29.53,North,0,0.0,0.0,36,0.00,,---,0.00,VWS V14.00,2013-01-06 20:11:00,
2013-01-06 15:13:00,40.5,15.6,29.53,North,0,0.0,0.0,36,0.00,,---,0.00,VWS V14.00,2013-01-06 20:13:00,
2013-01-06 15:18:00,39.7,15.6,29.53,North,0,0.0,0.0,37,0.00,,---,0.00,VWS V14.00,2013-01-06 20:18:00,
2013-01-06 15:24:00,39.2,15.7,29.53,North,0,0.0,0.0,38,0.00,,---,0.00,VWS V14.00,2013-01-06 20:24:00,
2013-01-06 15:30:00,38.8,16.0,29.53,North,0,0.0,0.0,39,0.00,,---,0.00,VWS V14.00,2013-01-06 20:30:00,
2013-01-06 15:35:00,38.7,15.9,29.53,North,0,0.0,0.0,39,0.00,,---,0.00,VWS V14.00,2013-01-06 20:35:00,
2013-01-06 15:40:00,38.3,15.5,29.53,North,0,0.0,0.0,39,0.00,,---,0.00,VWS V14.00,2013-01-06 20:40:00,
2013-01-06 15:46:00,37.9,15.2,29.53,North,0,0.0,0.0,39,0.00,,---,0.00,VWS V14.00,2013-01-06 20:46:00,
2013-01-06 15:51:00,37.9,15.2,29.53,North,0,0.0,0.0,39,0.00,,---,0.00,VWS V14.00,2013-01-06 20:51:00,
2013-01-06 15:57:00,37.9,15.8,29.53,North,0,0.0,0.0,40,0.00,,---,0.00,VWS V14.00,2013-01-06 20:57:00,
2013-01-06 16:02:00,37.9,15.2,29.53,North,0,0.0,0.0,39,0.00,,---,0.00,VWS V14.00,2013-01-06 21:02:00,
2013-01-06 16:07:00,37.8,15.0,29.53,North,0,0.0,0.0,39,0.00,,---,0.00,VWS V14.00,2013-01-06 21:07:00,
2013-01-06 16:12:00,37.6,15.5,29.53,North,0,0.0,0.0,40,0.00,,---,0.00,VWS V14.00,2013-01-06 21:12:00,
2013-01-06 16:17:00,37.0,15.0,29.53,North,0,0.0,0.0,40,0.00,,---,0.00,VWS V14.00,2013-01-06 21:17:00,
2013-01-06 16:22:00,36.5,14.5,29.53,North,0,0.0,0.0,40,0.00,,---,0.00,VWS V14.00,2013-01-06 21:22:00,
2013-01-06 16:27:00,35.8,14.4,29.53,North,0,0.0,0.0,41,0.00,,---,0.00,VWS V14.00,2013-01-06 21:27:00,
2013-01-06 16:33:00,35.1,13.8,29.53,North,0,0.0,0.0,41,0.00,,---,0.00,VWS V14.00,2013-01-06 21:33:00,
2013-01-06 16:38:00,34.5,13.8,29.53,North,0,0.0,0.0,42,0.00,,---,0.00,VWS V14.00,2013-01-06 21:38:00,
2013-01-06 16:43:00,34.0,13.3,29.53,North,0,0.0,0.0,42,0.00,,---,0.00,VWS V14.00,2013-01-06 21:43:00,
2013-01-06 16:48:00,33.6,13.0,29.53,North,0,0.0,0.0,42,0.00,,---,0.00,VWS V14.00,2013-01-06 21:48:00,
2013-01-06 16:54:00,33.1,14.6,29.53,North,0,0.0,0.0,46,0.00,,---,0.00,VWS V14.00,2013-01-06 21:54:00,
2013-01-06 17:00:00,32.7,14.2,29.53,North,0,0.0,0.0,46,0.00,,---,0.00,VWS V14.00,2013-01-06 22:00:00,
2013-01-06 17:05:00,32.5,14.6,29.53,North,0,0.0,0.0,47,0.00,,---,0.00,VWS V14.00,2013-01-06 22:05:00,
2013-01-06 17:10:00,32.4,15.4,29.53,North,0,0.0,0.0,49,0.00,,---,0.00,VWS V14.00,2013-01-06 22:10:00,
2013-01-06 17:16:00,32.2,15.2,29.53,North,0,0.0,0.0,49,0.00,,---,0.00,VWS V14.00,2013-01-06 22:16:00,
2013-01-06 17:21:00,32.0,15.5,29.53,North,0,0.0,0.0,50,0.00,,---,0.00,VWS V14.00,2013-01-06 22:21:00,
2013-01-06 17:26:00,31.8,14.9,29.53,North,0,0.0,0.0,49,0.00,,---,0.00,VWS V14.00,2013-01-06 22:26:00,
2013-01-06 17:31:00,31.6,14.2,29.53,North,0,0.0,0.0,48,0.00,,---,0.00,VWS V14.00,2013-01-06 22:31:00,
2013-01-06 17:36:00,31.6,14.2,29.53,North,0,0.0,0.0,48,0.00,,---,0.00,VWS V14.00,2013-01-06 22:36:00,
2013-01-06 17:42:00,31.5,14.1,29.53,North,0,0.0,0.0,48,0.00,,---,0.00,VWS V14.00,2013-01-06 22:42:00,
2013-01-06 17:47:00,31.5,14.1,29.56,North,0,0.0,0.0,48,0.00,,---,0.00,VWS V14.00,2013-01-06 22:47:00,
2013-01-06 17:52:00,31.5,14.1,29.56,North,0,0.0,0.0,48,0.00,,---,0.00,VWS V14.00,2013-01-06 22:52:00,
2013-01-06 17:57:00,31.3,13.9,29.56,North,0,0.0,0.0,48,0.00,,---,0.00,VWS V14.00,2013-01-06 22:57:00,
2013-01-06 18:02:00,31.1,14.2,29.56,North,0,0.0,0.0,49,0.00,,---,0.00,VWS V14.00,2013-01-06 23:02:00,
2013-01-06 18:08:00,31.1,14.2,29.56,North,0,0.0,0.0,49,0.00,,---,0.00,VWS V14.00,2013-01-06 23:08:00,
2013-01-06 18:13:00,30.9,14.5,29.56,North,0,0.0,0.0,50,0.00,,---,0.00,VWS V14.00,2013-01-06 23:13:00,
2013-01-06 18:18:00,30.9,14.5,29.56,North,0,0.0,0.0,50,0.00,,---,0.00,VWS V14.00,2013-01-06 23:18:00,
2013-01-06 18:23:00,30.9,14.9,29.56,North,0,0.0,0.0,51,0.00,,---,0.00,VWS V14.00,2013-01-06 23:23:00,
2013-01-06 18:29:00,31.1,15.1,29.56,North,0,0.0,0.0,51,0.00,,---,0.00,VWS V14.00,2013-01-06 23:29:00,
2013-01-06 18:35:00,31.1,15.1,29.56,North,0,0.0,0.0,51,0.00,,---,0.00,VWS V14.00,2013-01-06 23:35:00,
2013-01-06 18:40:00,31.1,15.1,29.56,North,0,0.0,0.0,51,0.00,,---,0.00,VWS V14.00,2013-01-06 23:40:00,
2013-01-06 18:45:00,31.1,15.1,29.56,North,0,0.0,0.0,51,0.00,,---,0.00,VWS V14.00,2013-01-06 23:45:00,
2013-01-06 18:51:00,31.1,15.1,29.56,North,0,0.0,0.0,51,0.00,,---,0.00,VWS V14.00,2013-01-06 23:51:00,
2013-01-06 18:56:00,31.1,15.1,29.56,North,0,0.0,0.0,51,0.00,,---,0.00,VWS V14.00,2013-01-06 23:56:00,
2013-01-06 19:01:00,31.1,15.1,29.56,North,0,0.0,0.0,51,0.00,,---,0.00,VWS V14.00,2013-01-07 00:01:00,
2013-01-06 19:06:00,31.1,15.1,29.56,North,0,0.0,0.0,51,0.00,,---,0.00,VWS V14.00,2013-01-07 00:06:00,
2013-01-06 19:11:00,31.1,15.5,29.56,North,0,0.0,0.0,52,0.00,,---,0.00,VWS V14.00,2013-01-07 00:11:00,
2013-01-06 19:17:00,31.1,15.5,29.56,North,0,0.0,0.0,52,0.00,,---,0.00,VWS V14.00,2013-01-07 00:17:00,
2013-01-06 19:22:00,31.1,15.5,29.56,North,0,0.0,0.0,52,0.00,,---,0.00,VWS V14.00,2013-01-07 00:22:00,
2013-01-06 19:27:00,31.1,15.5,29.56,North,0,0.0,0.0,52,0.00,,---,0.00,VWS V14.00,2013-01-07 00:27:00,
2013-01-06 19:32:00,31.1,15.5,29.56,North,0,0.0,0.0,52,0.00,,---,0.00,VWS V14.00,2013-01-07 00:32:00,
2013-01-06 19:38:00,31.1,15.5,29.56,North,0,0.0,0.0,52,0.00,,---,0.00,VWS V14.00,2013-01-07 00:38:00,
2013-01-06 19:43:00,31.1,16.0,29.56,North,0,0.0,0.0,53,0.00,,---,0.00,VWS V14.00,2013-01-07 00:43:00,
2013-01-06 19:49:00,31.1,16.0,29.56,North,0,0.0,0.0,53,0.00,,---,0.00,VWS V14.00,2013-01-07 00:49:00,
2013-01-06 19:54:00,31.1,16.0,29.56,North,0,0.0,0.0,53,0.00,,---,0.00,VWS V14.00,2013-01-07 00:54:00,
2013-01-06 19:59:00,31.1,16.4,29.56,North,0,0.0,0.0,54,0.00,,---,0.00,VWS V14.00,2013-01-07 00:59:00,
2013-01-06 20:05:00,31.3,16.6,29.56,North,0,0.0,0.0,54,0.00,,---,0.00,VWS V14.00,2013-01-07 01:05:00,
2013-01-06 20:10:00,31.5,16.8,29.56,North,0,0.0,0.0,54,0.00,,---,0.00,VWS V14.00,2013-01-07 01:10:00,
2013-01-06 20:15:00,31.5,16.8,29.56,North,0,0.0,0.0,54,0.00,,---,0.00,VWS V14.00,2013-01-07 01:15:00,
2013-01-06 20:20:00,31.5,16.8,29.56,North,0,0.0,0.0,54,0.00,,---,0.00,VWS V14.00,2013-01-07 01:20:00,
2013-01-06 20:26:00,31.5,16.8,29.56,North,0,0.0,0.0,54,0.00,,---,0.00,VWS V14.00,2013-01-07 01:26:00,
2013-01-06 20:31:00,31.3,16.6,29.56,North,0,0.0,0.0,54,0.00,,---,0.00,VWS V14.00,2013-01-07 01:31:00,
2013-01-06 20:36:00,31.3,17.0,29.56,North,0,0.0,0.0,55,0.00,,---,0.00,VWS V14.00,2013-01-07 01:36:00,
2013-01-06 20:41:00,31.3,17.0,29.56,North,0,0.0,0.0,55,0.00,,---,0.00,VWS V14.00,2013-01-07 01:41:00,
2013-01-06 20:46:00,31.5,17.2,29.56,North,0,0.0,0.0,55,0.00,,---,0.00,VWS V14.00,2013-01-07 01:46:00,
2013-01-06 20:52:00,31.6,17.3,29.56,North,0,0.0,0.0,55,0.00,,---,0.00,VWS V14.00,2013-01-07 01:52:00,
2013-01-06 20:57:00,31.6,17.3,29.56,North,0,0.0,0.0,55,0.00,,---,0.00,VWS V14.00,2013-01-07 01:57:00,
2013-01-06 21:02:00,31.6,17.3,29.56,North,0,0.0,0.0,55,0.00,,---,0.00,VWS V14.00,2013-01-07 02:02:00,
2013-01-06 21:07:00,31.6,17.3,29.56,North,0,0.0,0.0,55,0.00,,---,0.00,VWS V14.00,2013-01-07 02:07:00,
2013-01-06 21:13:00,31.6,17.3,29.56,North,0,0.0,0.0,55,0.00,,---,0.00,VWS V14.00,2013-01-07 02:13:00,
2013-01-06 21:18:00,32.0,17.7,29.56,North,0,0.0,0.0,55,0.00,,---,0.00,VWS V14.00,2013-01-07 02:18:00,
2013-01-06 21:24:00,32.2,17.4,29.56,North,0,0.0,0.0,54,0.00,,---,0.00,VWS V14.00,2013-01-07 02:24:00,
2013-01-06 21:29:00,31.6,16.9,29.56,North,0,0.0,0.0,54,0.00,,---,0.00,VWS V14.00,2013-01-07 02:29:00,
2013-01-06 21:34:00,31.5,16.8,29.53,North,0,0.0,0.0,54,0.00,,---,0.00,VWS V14.00,2013-01-07 02:34:00,
2013-01-06 21:40:00,31.3,16.6,29.53,North,0,0.0,0.0,54,0.00,,---,0.00,VWS V14.00,2013-01-07 02:40:00,
2013-01-06 21:45:00,31.5,16.8,29.56,North,0,0.0,0.0,54,0.00,,---,0.00,VWS V14.00,2013-01-07 02:45:00,
2013-01-06 21:50:00,31.6,16.9,29.56,North,0,0.0,0.0,54,0.00,,---,0.00,VWS V14.00,2013-01-07 02:50:00,
2013-01-06 21:55:00,31.6,17.3,29.56,North,0,0.0,0.0,55,0.00,,---,0.00,VWS V14.00,2013-01-07 02:55:00,
2013-01-06 22:01:00,31.6,17.3,29.56,North,0,0.0,0.0,55,0.00,,---,0.00,VWS V14.00,2013-01-07 03:01:00,
2013-01-06 22:06:00,31.8,17.5,29.56,North,0,0.0,0.0,55,0.00,,---,0.00,VWS V14.00,2013-01-07 03:06:00,
2013-01-06 22:11:00,31.8,17.5,29.56,North,0,0.0,0.0,55,0.00,,---,0.00,VWS V14.00,2013-01-07 03:11:00,
2013-01-06 22:16:00,32.0,17.7,29.56,North,0,0.0,0.0,55,0.00,,---,0.00,VWS V14.00,2013-01-07 03:16:00,
2013-01-06 22:21:00,32.2,17.8,29.56,North,0,0.0,0.0,55,0.00,,---,0.00,VWS V14.00,2013-01-07 03:21:00,
2013-01-06 22:27:00,32.2,17.8,29.56,North,0,0.0,0.0,55,0.00,,---,0.00,VWS V14.00,2013-01-07 03:27:00,
2013-01-06 22:32:00,32.0,17.2,29.56,North,0,0.0,0.0,54,0.00,,---,0.00,VWS V14.00,2013-01-07 03:32:00,
2013-01-06 22:37:00,31.6,16.9,29.56,North,0,0.0,0.0,54,0.00,,---,0.00,VWS V14.00,2013-01-07 03:37:00,
2013-01-06 22:42:00,31.5,16.8,29.56,North,0,0.0,0.0,54,0.00,,---,0.00,VWS V14.00,2013-01-07 03:42:00,
2013-01-06 22:48:00,31.1,16.4,29.56,North,0,0.0,0.0,54,0.00,,---,0.00,VWS V14.00,2013-01-07 03:48:00,
2013-01-06 22:54:00,30.7,16.1,29.56,North,0,0.0,0.0,54,0.00,,---,0.00,VWS V14.00,2013-01-07 03:54:00,
2013-01-06 22:59:00,30.6,15.9,29.56,North,0,0.0,0.0,54,0.00,,---,0.00,VWS V14.00,2013-01-07 03:59:00,
2013-01-06 23:04:00,30.2,16.0,29.56,North,0,0.0,0.0,55,0.00,,---,0.00,VWS V14.00,2013-01-07 04:04:00,
2013-01-06 23:09:00,30.0,15.8,29.56,North,0,0.0,0.0,55,0.00,,---,0.00,VWS V14.00,2013-01-07 04:09:00,
2013-01-06 23:15:00,30.2,16.0,29.56,North,0,0.0,0.0,55,0.00,,---,0.00,VWS V14.00,2013-01-07 04:15:00,
2013-01-06 23:20:00,30.6,16.3,29.56,North,0,0.0,0.0,55,0.00,,---,0.00,VWS V14.00,2013-01-07 04:20:00,
2013-01-06 23:25:00,30.7,16.5,29.56,North,0,0.0,0.0,55,0.00,,---,0.00,VWS V14.00,2013-01-07 04:25:00,
2013-01-06 23:30:00,30.7,16.1,29.56,North,0,0.0,0.0,54,0.00,,---,0.00,VWS V14.00,2013-01-07 04:30:00,
2013-01-06 23:36:00,30.6,15.9,29.56,North,0,0.0,0.0,54,0.00,,---,0.00,VWS V14.00,2013-01-07 04:36:00,
2013-01-06 23:41:00,30.6,15.9,29.56,North,0,0.0,0.0,54,0.00,,---,0.00,VWS V14.00,2013-01-07 04:41:00,
2013-01-06 23:46:00,30.7,16.1,29.56,North,0,0.0,0.0,54,0.00,,---,0.00,VWS V14.00,2013-01-07 04:46:00,
2013-01-06 23:51:00,30.7,16.1,29.56,North,0,0.0,0.0,54,0.00,,---,0.00,VWS V14.00,2013-01-07 04:51:00,
2013-01-06 23:57:00,30.2,15.6,29.56,North,0,0.0,0.0,54,0.00,,---,0.00,VWS V14.00,2013-01-07 04:57:00,